,,Stat5,,Stat1,,Stat2,,Stat3,,Stat4,,Wind1,,Wind1,
time,status,PA1M_AVG,status,PR1M_SUM,status,RH1M_AVG,status,SR1M_AVG,status,TA1M_AVG,status,W1dAve1m,status,W1sAve1m,
2001-06-13, 00:00:00,VALID,918.079,VALID,0,VALID,94.1229,VALID,-0.0339617,VALID,20.1984,VALID,146,VALID,0.387747,
2001-06-13, 00:01:00,VALID,918.071,VALID,0,VALID,93.7274,VALID,-0.0509425,VALID,20.2084,VALID,164,VALID,0.220553,
2001-06-13, 00:02:00,VALID,918.052,VALID,0,VALID,93.8101,VALID,-0.0339617,VALID,20.224,VALID,156,VALID,0.119191,
2001-06-13, 00:03:00,VALID,918.059,VALID,0,VALID,94.334,VALID,-0.0169808,VALID,20.2829,VALID,59,VALID,0.785362,
2001-06-13, 00:04:00,VALID,918.04,VALID,0,VALID,94.3378,VALID,0,VALID,20.2886,VALID,64,VALID,0.788833,
2001-06-13, 00:05:00,VALID,918.044,VALID,0,VALID,94.2157,VALID,0,VALID,20.2496,VALID,97,VALID,0.686472,
2001-06-13, 00:06:00,VALID,918.05,VALID,0,VALID,94.1356,VALID,-0.0169808,VALID,20.23,VALID,136,VALID,0.479519,
2001-06-13, 00:07:00,VALID,918.045,VALID,0,VALID,94.1318,VALID,-0.0169808,VALID,20.2307,VALID,151,VALID,0.517064,
2001-06-13, 00:08:00,VALID,918.049,VALID,0,VALID,93.8126,VALID,-0.0339617,VALID,20.224,VALID,156,VALID,0.402148,
2001-06-13, 00:09:00,VALID,918.044,VALID,0,VALID,93.5265,VALID,0,VALID,20.2399,VALID,174,VALID,0.304276,
2001-06-13, 00:10:00,VALID,918.061,VALID,0,VALID,93.2735,VALID,0,VALID,20.2787,VALID,207,VALID,0.232772,
2001-06-13, 00:11:00,VALID,918.06,VALID,0,VALID,93.0586,VALID,-0.0169808,VALID,20.3309,VALID,208,VALID,0.0495477,
2001-06-13, 00:12:00,VALID,918.062,VALID,0,VALID,92.9454,VALID,0,VALID,20.3498,VALID,250,VALID,0.336349,
2001-06-13, 00:13:00,VALID,918.079,VALID,0,VALID,93.1107,VALID,0,VALID,20.3627,VALID,250,VALID,0.766295,
2001-06-13, 00:14:00,VALID,918.07,VALID,0,VALID,93.4057,VALID,-0.0169808,VALID,20.3373,VALID,264,VALID,0.581826,
2001-06-13, 00:15:00,VALID,918.082,VALID,0,VALID,93.7325,VALID,-0.0169808,VALID,20.2983,VALID,306,VALID,0.475296,
2001-06-13, 00:16:00,VALID,918.09,VALID,0,VALID,93.7198,VALID,-0.0169808,VALID,20.2824,VALID,1,VALID,0.66139,
2001-06-13, 00:17:00,VALID,918.093,VALID,0,VALID,94.2831,VALID,-0.0169808,VALID,20.2784,VALID,6,VALID,0.552284,
2001-06-13, 00:18:00,VALID,918.102,VALID,0,VALID,94.3442,VALID,-0.0169808,VALID,20.2851,VALID,29,VALID,0.343973,
2001-06-13, 00:19:00,VALID,918.104,VALID,0,VALID,94.1661,VALID,-0.0169808,VALID,20.2434,VALID,231,VALID,0.400195,
2001-06-13, 00:20:00,VALID,918.077,VALID,0,VALID,94.409,VALID,-0.0339617,VALID,20.2046,VALID,245,VALID,0.207721,
2001-06-13, 00:21:00,VALID,918.058,VALID,0,VALID,94.4026,VALID,-0.0509425,VALID,20.1726,VALID,272,VALID,0.375211,
2001-06-13, 00:22:00,VALID,918.046,VALID,0,VALID,94.4599,VALID,-0.0169808,VALID,20.1112,VALID,263,VALID,0.251149,
2001-06-13, 00:23:00,VALID,918.03,VALID,0,VALID,94.9723,VALID,-0.0169808,VALID,20.1042,VALID,298,VALID,0.150338,
2001-06-13, 00:24:00,VALID,918.022,VALID,0,VALID,95.2203,VALID,0.0169808,VALID,20.1172,VALID,30,VALID,0.374512,
2001-06-13, 00:25:00,VALID,918.01,VALID,0,VALID,95.1682,VALID,-0.0169808,VALID,20.1107,VALID,33,VALID,0.0522837,
2001-06-13, 00:26:00,VALID,917.998,VALID,0,VALID,95.3678,VALID,0,VALID,20.1206,VALID,33,VALID,0.146652,
2001-06-13, 00:27:00,VALID,917.974,VALID,0,VALID,95.4873,VALID,0.0509425,VALID,20.1293,VALID,33,VALID,0.015625,
2001-06-13, 00:28:00,VALID,917.957,VALID,0,VALID,95.4123,VALID,0,VALID,20.1231,VALID,26,VALID,0.43796,
2001-06-13, 00:29:00,VALID,917.941,VALID,0,VALID,95.4416,VALID,0.0339617,VALID,20.1124,VALID,19,VALID,0.47424,
2001-06-13, 00:30:00,VALID,917.925,VALID,0,VALID,95.4174,VALID,0.0169808,VALID,20.097,VALID,33,VALID,0.689967,
2001-06-13, 00:31:00,VALID,917.91,VALID,0,VALID,95.4899,VALID,0.0339617,VALID,20.0878,VALID,28,VALID,0.843133,
2001-06-13, 00:32:00,VALID,917.909,VALID,0,VALID,95.5369,VALID,0,VALID,20.0553,VALID,33,VALID,1.02545,
2001-06-13, 00:33:00,VALID,917.885,VALID,0,VALID,95.6196,VALID,0,VALID,20.0031,VALID,32,VALID,1.14696,
2001-06-13, 00:34:00,VALID,917.867,VALID,0,VALID,95.7645,VALID,0,VALID,19.9778,VALID,25,VALID,0.990349,
2001-06-13, 00:35:00,VALID,917.856,VALID,0,VALID,95.7391,VALID,-0.0169808,VALID,19.9194,VALID,30,VALID,0.769003,
2001-06-13, 00:36:00,VALID,917.853,VALID,0,VALID,95.9019,VALID,0,VALID,19.8968,VALID,18,VALID,0.528564,
2001-06-13, 00:37:00,VALID,917.825,VALID,0,VALID,95.9375,VALID,0.0169808,VALID,19.8776,VALID,24,VALID,0.350761,
2001-06-13, 00:38:00,VALID,917.819,VALID,0,VALID,95.8663,VALID,0.0339617,VALID,19.8553,VALID,40,VALID,0.368527,
2001-06-13, 00:39:00,VALID,917.813,VALID,0,VALID,95.7862,VALID,0.0339617,VALID,19.8327,VALID,72,VALID,0.440456,
2001-06-13, 00:40:00,VALID,917.797,VALID,0,VALID,95.7111,VALID,0,VALID,19.8066,VALID,118,VALID,0.682445,
2001-06-13, 00:41:00,VALID,917.798,VALID,0,VALID,95.94,VALID,0.0169808,VALID,19.7812,VALID,138,VALID,1.02618,
2001-06-13, 00:42:00,VALID,917.793,VALID,0,VALID,96.235,VALID,0,VALID,19.7554,VALID,136,VALID,1.34498,
2001-06-13, 00:43:00,VALID,917.801,VALID,0,VALID,96.5008,VALID,0.0169808,VALID,19.7258,VALID,134,VALID,1.10958,
2001-06-13, 00:44:00,VALID,917.814,VALID,0,VALID,96.7043,VALID,0,VALID,19.69,VALID,140,VALID,1.42545,
2001-06-13, 00:45:00,VALID,917.822,VALID,0,VALID,96.7958,VALID,0.0339617,VALID,19.655,VALID,134,VALID,1.44236,
2001-06-13, 00:46:00,VALID,917.837,VALID,0,VALID,96.8937,VALID,0.0339617,VALID,19.6225,VALID,133,VALID,1.14131,
2001-06-13, 00:47:00,VALID,917.828,VALID,0,VALID,96.9128,VALID,0.0339617,VALID,19.6133,VALID,128,VALID,1.09776,
2001-06-13, 00:48:00,VALID,917.818,VALID,0,VALID,96.9853,VALID,0,VALID,19.6135,VALID,127,VALID,0.994385,
2001-06-13, 00:49:00,VALID,917.831,VALID,0,VALID,97.0857,VALID,0.0169808,VALID,19.6133,VALID,137,VALID,1.11158,
2001-06-13, 00:50:00,VALID,917.824,VALID,0,VALID,97.218,VALID,0.0169808,VALID,19.5931,VALID,121,VALID,1.11339,
2001-06-13, 00:51:00,VALID,917.807,VALID,0,VALID,97.3782,VALID,0.0169808,VALID,19.5842,VALID,139,VALID,0.899282,
2001-06-13, 00:52:00,VALID,917.808,VALID,0,VALID,97.5232,VALID,0,VALID,19.5479,VALID,132,VALID,0.939798,
2001-06-13, 00:53:00,VALID,917.788,VALID,0,VALID,97.6567,VALID,0,VALID,19.5353,VALID,130,VALID,1.2462,
2001-06-13, 00:54:00,VALID,917.79,VALID,0,VALID,97.7673,VALID,0.0169808,VALID,19.5196,VALID,127,VALID,1.04934,
2001-06-13, 00:55:00,VALID,917.786,VALID,0,VALID,97.8958,VALID,0,VALID,19.5037,VALID,123,VALID,0.930715,
2001-06-13, 00:56:00,VALID,917.77,VALID,0,VALID,98,VALID,0,VALID,19.5005,VALID,124,VALID,0.916518,
2001-06-13, 00:57:00,VALID,917.775,VALID,0,VALID,98.0878,VALID,0,VALID,19.4779,VALID,122,VALID,1.15709,
2001-06-13, 00:58:00,VALID,917.783,VALID,0,VALID,98.1539,VALID,0,VALID,19.4679,VALID,112,VALID,1.10156,
2001-06-13, 00:59:00,VALID,917.775,VALID,0,VALID,98.22,VALID,0,VALID,19.4716,VALID,103,VALID,0.916385,
2001-06-13, 01:00:00,VALID,917.769,VALID,0,VALID,98.2531,VALID,0,VALID,19.4652,VALID,101,VALID,0.669434,
2001-06-13, 01:01:00,VALID,917.769,VALID,0,VALID,98.2709,VALID,0,VALID,19.4553,VALID,95,VALID,0.732171,
2001-06-13, 01:02:00,VALID,917.758,VALID,0,VALID,98.276,VALID,0.0169808,VALID,19.4553,VALID,95,VALID,0.857366,
2001-06-13, 01:03:00,VALID,917.759,VALID,0,VALID,98.2683,VALID,0.0169808,VALID,19.4322,VALID,96,VALID,0.855785,
2001-06-13, 01:04:00,VALID,917.76,VALID,0,VALID,98.2963,VALID,0,VALID,19.4262,VALID,95,VALID,0.849724,
2001-06-13, 01:05:00,VALID,917.764,VALID,0,VALID,98.3344,VALID,0,VALID,19.41,VALID,100,VALID,1.04054,
2001-06-13, 01:06:00,VALID,917.768,VALID,0,VALID,98.3879,VALID,0,VALID,19.4259,VALID,104,VALID,1.15748,
2001-06-13, 01:07:00,VALID,917.758,VALID,0,VALID,98.3828,VALID,0.0169808,VALID,19.4257,VALID,81,VALID,0.814556,
2001-06-13, 01:08:00,VALID,917.762,VALID,0,VALID,98.3637,VALID,0,VALID,19.4292,VALID,102,VALID,0.976339,
2001-06-13, 01:09:00,VALID,917.737,VALID,0,VALID,98.3523,VALID,0,VALID,19.4192,VALID,114,VALID,1.07707,
2001-06-13, 01:10:00,VALID,917.737,VALID,0,VALID,98.3942,VALID,0.0169808,VALID,19.4292,VALID,122,VALID,1.25023,
2001-06-13, 01:11:00,VALID,917.709,VALID,0,VALID,98.3993,VALID,0,VALID,19.4391,VALID,126,VALID,1.01014,
2001-06-13, 01:12:00,VALID,917.702,VALID,0,VALID,98.365,VALID,0,VALID,19.4488,VALID,116,VALID,0.816895,
2001-06-13, 01:13:00,VALID,917.678,VALID,0,VALID,98.3065,VALID,0,VALID,19.4456,VALID,114,VALID,1.13401,
2001-06-13, 01:14:00,VALID,917.654,VALID,0,VALID,98.2543,VALID,0,VALID,19.4461,VALID,108,VALID,0.835045,
2001-06-13, 01:15:00,VALID,917.644,VALID,0,VALID,98.1971,VALID,0.0169808,VALID,19.4523,VALID,110,VALID,0.644637,
2001-06-13, 01:16:00,VALID,917.631,VALID,0,VALID,98.1526,VALID,0.0339617,VALID,19.4386,VALID,115,VALID,0.847426,
2001-06-13, 01:17:00,VALID,917.622,VALID,0,VALID,98.1323,VALID,0,VALID,19.449,VALID,114,VALID,0.869932,
2001-06-13, 01:18:00,VALID,917.604,VALID,0,VALID,98.0941,VALID,0,VALID,19.4423,VALID,114,VALID,0.830387,
2001-06-13, 01:19:00,VALID,917.622,VALID,0,VALID,98.1119,VALID,0,VALID,19.4622,VALID,113,VALID,1.04811,
2001-06-13, 01:20:00,VALID,917.6,VALID,0,VALID,98.1234,VALID,0,VALID,19.4493,VALID,115,VALID,1.08862,
2001-06-13, 01:21:00,VALID,917.607,VALID,0,VALID,98.1348,VALID,-0.0169808,VALID,19.456,VALID,108,VALID,1.13514,
2001-06-13, 01:22:00,VALID,917.594,VALID,0,VALID,98.1323,VALID,-0.0339617,VALID,19.459,VALID,111,VALID,1.13028,
2001-06-13, 01:23:00,VALID,917.596,VALID,0,VALID,98.1526,VALID,-0.0169808,VALID,19.4716,VALID,115,VALID,1.02344,
2001-06-13, 01:24:00,VALID,917.576,VALID,0,VALID,98.1246,VALID,0.0169808,VALID,19.4816,VALID,124,VALID,0.831543,
2001-06-13, 01:25:00,VALID,917.565,VALID,0,VALID,98.075,VALID,0,VALID,19.4913,VALID,116,VALID,0.935296,
2001-06-13, 01:26:00,VALID,917.543,VALID,0,VALID,98.0051,VALID,-0.0169808,VALID,19.4947,VALID,119,VALID,0.860045,
2001-06-13, 01:27:00,VALID,917.526,VALID,0,VALID,98.0013,VALID,-0.0339617,VALID,19.4779,VALID,126,VALID,0.564189,
2001-06-13, 01:28:00,VALID,917.51,VALID,0,VALID,97.939,VALID,-0.0339617,VALID,19.5077,VALID,107,VALID,0.755974,
2001-06-13, 01:29:00,VALID,917.502,VALID,0,VALID,97.8601,VALID,-0.0169808,VALID,19.5139,VALID,109,VALID,0.8144,
2001-06-13, 01:30:00,VALID,917.506,VALID,0,VALID,97.705,VALID,-0.0509425,VALID,19.5074,VALID,97,VALID,0.949836,
2001-06-13, 01:31:00,VALID,917.492,VALID,0,VALID,97.6389,VALID,-0.0339617,VALID,19.5176,VALID,83,VALID,0.638569,
2001-06-13, 01:32:00,VALID,917.499,VALID,0,VALID,97.6007,VALID,-0.0169808,VALID,19.5303,VALID,85,VALID,0.827679,
2001-06-13, 01:33:00,VALID,917.496,VALID,0,VALID,97.5283,VALID,0,VALID,19.533,VALID,89,VALID,0.802576,
2001-06-13, 01:34:00,VALID,917.514,VALID,0,VALID,97.4443,VALID,-0.0339617,VALID,19.5529,VALID,92,VALID,0.592831,
2001-06-13, 01:35:00,VALID,917.517,VALID,0,VALID,97.3426,VALID,-0.0339617,VALID,19.5358,VALID,100,VALID,0.792019,
2001-06-13, 01:36:00,VALID,917.521,VALID,0,VALID,97.2421,VALID,-0.0339617,VALID,19.5429,VALID,95,VALID,0.665771,
2001-06-13, 01:37:00,VALID,917.517,VALID,0,VALID,97.0908,VALID,-0.0169808,VALID,19.5462,VALID,96,VALID,0.689704,
2001-06-13, 01:38:00,VALID,917.517,VALID,0,VALID,96.8861,VALID,0,VALID,19.5397,VALID,91,VALID,0.643973,
2001-06-13, 01:39:00,VALID,917.518,VALID,0,VALID,96.7043,VALID,-0.0339617,VALID,19.5626,VALID,84,VALID,0.534206,
2001-06-13, 01:40:00,VALID,917.529,VALID,0,VALID,96.5898,VALID,0,VALID,19.582,VALID,89,VALID,0.51034,
2001-06-13, 01:41:00,VALID,917.539,VALID,0,VALID,96.4538,VALID,-0.0169808,VALID,19.5914,VALID,101,VALID,0.458193,
2001-06-13, 01:42:00,VALID,917.551,VALID,0,VALID,96.4321,VALID,-0.0509425,VALID,19.6172,VALID,91,VALID,0.556332,
2001-06-13, 01:43:00,VALID,917.56,VALID,0,VALID,96.3075,VALID,-0.0169808,VALID,19.6242,VALID,93,VALID,0.511513,
2001-06-13, 01:44:00,VALID,917.558,VALID,0,VALID,96.249,VALID,-0.0339617,VALID,19.617,VALID,94,VALID,0.622321,
2001-06-13, 01:45:00,VALID,917.55,VALID,0,VALID,96.1435,VALID,-0.0339617,VALID,19.6336,VALID,95,VALID,0.346706,
2001-06-13, 01:46:00,VALID,917.551,VALID,0,VALID,96.0786,VALID,0,VALID,19.6533,VALID,94,VALID,0.335248,
2001-06-13, 01:47:00,VALID,917.529,VALID,0,VALID,95.9476,VALID,-0.0339617,VALID,19.6659,VALID,88,VALID,0.438133,
2001-06-13, 01:48:00,VALID,917.53,VALID,0,VALID,95.7175,VALID,-0.0169808,VALID,19.6724,VALID,89,VALID,0.615967,
2001-06-13, 01:49:00,VALID,917.529,VALID,0,VALID,95.4695,VALID,-0.0509425,VALID,19.6721,VALID,80,VALID,0.541466,
2001-06-13, 01:50:00,VALID,917.509,VALID,0,VALID,95.397,VALID,-0.0169808,VALID,19.6913,VALID,100,VALID,0.602232,
2001-06-13, 01:51:00,VALID,917.511,VALID,0,VALID,95.4072,VALID,-0.0169808,VALID,19.7206,VALID,113,VALID,0.604519,
2001-06-13, 01:52:00,VALID,917.501,VALID,0,VALID,95.3843,VALID,-0.0339617,VALID,19.7268,VALID,113,VALID,0.578355,
2001-06-13, 01:53:00,VALID,917.494,VALID,0,VALID,95.3411,VALID,-0.0339617,VALID,19.7395,VALID,116,VALID,0.541385,
2001-06-13, 01:54:00,VALID,917.488,VALID,0,VALID,95.2788,VALID,-0.0339617,VALID,19.7529,VALID,125,VALID,0.73787,
2001-06-13, 01:55:00,VALID,917.48,VALID,0,VALID,95.3538,VALID,0,VALID,19.7623,VALID,133,VALID,0.74116,
2001-06-13, 01:56:00,VALID,917.483,VALID,0,VALID,95.4021,VALID,-0.0339617,VALID,19.772,VALID,131,VALID,0.572545,
2001-06-13, 01:57:00,VALID,917.474,VALID,0,VALID,95.5013,VALID,0,VALID,19.8013,VALID,129,VALID,0.442568,
2001-06-13, 01:58:00,VALID,917.465,VALID,0,VALID,95.4492,VALID,0,VALID,19.7944,VALID,121,VALID,0.31204,
2001-06-13, 01:59:00,VALID,917.451,VALID,0,VALID,95.4352,VALID,-0.0339617,VALID,19.7847,VALID,126,VALID,0.451436,
2001-06-13, 02:00:00,VALID,917.434,VALID,0,VALID,95.3475,VALID,-0.0339617,VALID,19.7944,VALID,140,VALID,0.687988,
2001-06-13, 02:01:00,VALID,917.424,VALID,0,VALID,95.3258,VALID,0,VALID,19.7715,VALID,141,VALID,0.536859,
2001-06-13, 02:02:00,VALID,917.418,VALID,0,VALID,95.4136,VALID,-0.0339617,VALID,19.772,VALID,141,VALID,0.329911,
2001-06-13, 02:03:00,VALID,917.411,VALID,0,VALID,95.5344,VALID,-0.0169808,VALID,19.7723,VALID,141,VALID,0.316301,
2001-06-13, 02:04:00,VALID,917.402,VALID,0,VALID,95.673,VALID,0,VALID,19.7492,VALID,141,VALID,0.253676,
2001-06-13, 02:05:00,VALID,917.4,VALID,0,VALID,95.8179,VALID,0,VALID,19.7395,VALID,141,VALID,0.146587,
2001-06-13, 02:06:00,VALID,917.4,VALID,0,VALID,95.8904,VALID,0,VALID,19.7266,VALID,130,VALID,0.129112,
2001-06-13, 02:07:00,VALID,917.411,VALID,0,VALID,95.8993,VALID,0,VALID,19.7199,VALID,109,VALID,0.453331,
2001-06-13, 02:08:00,VALID,917.391,VALID,0,VALID,95.9031,VALID,0,VALID,19.704,VALID,118,VALID,0.488393,
2001-06-13, 02:09:00,VALID,917.384,VALID,0,VALID,96.0964,VALID,0.0339617,VALID,19.6813,VALID,129,VALID,0.39337,
2001-06-13, 02:10:00,VALID,917.381,VALID,0,VALID,96.1676,VALID,0,VALID,19.6717,VALID,127,VALID,0.721507,
2001-06-13, 02:11:00,VALID,917.362,VALID,0,VALID,96.1562,VALID,0,VALID,19.6585,VALID,126,VALID,0.826858,
2001-06-13, 02:12:00,VALID,917.343,VALID,0,VALID,96.0977,VALID,0,VALID,19.6649,VALID,117,VALID,0.843994,
2001-06-13, 02:13:00,VALID,917.342,VALID,0,VALID,96.1854,VALID,0,VALID,19.6843,VALID,111,VALID,0.98778,
2001-06-13, 02:14:00,VALID,917.333,VALID,0,VALID,96.1689,VALID,0.0169808,VALID,19.6908,VALID,109,VALID,1.05625,
2001-06-13, 02:15:00,VALID,917.329,VALID,0,VALID,96.0913,VALID,0,VALID,19.6878,VALID,122,VALID,0.843961,
2001-06-13, 02:16:00,VALID,917.313,VALID,0,VALID,95.9451,VALID,0,VALID,19.6843,VALID,115,VALID,1.01677,
2001-06-13, 02:17:00,VALID,917.289,VALID,0,VALID,95.9286,VALID,-0.0169808,VALID,19.6878,VALID,115,VALID,0.969172,
2001-06-13, 02:18:00,VALID,917.259,VALID,0,VALID,95.9095,VALID,-0.0169808,VALID,19.6878,VALID,117,VALID,0.789268,
2001-06-13, 02:19:00,VALID,917.243,VALID,0,VALID,95.9209,VALID,0,VALID,19.6846,VALID,128,VALID,0.844161,
2001-06-13, 02:20:00,VALID,917.229,VALID,0,VALID,95.9388,VALID,0,VALID,19.6848,VALID,132,VALID,0.854688,
2001-06-13, 02:21:00,VALID,917.225,VALID,0,VALID,95.9019,VALID,0,VALID,19.6754,VALID,128,VALID,0.731208,
2001-06-13, 02:22:00,VALID,917.227,VALID,0,VALID,95.9375,VALID,-0.0169808,VALID,19.6744,VALID,141,VALID,1.0131,
2001-06-13, 02:23:00,VALID,917.222,VALID,0,VALID,95.9006,VALID,-0.0169808,VALID,19.6684,VALID,131,VALID,0.784628,
2001-06-13, 02:24:00,VALID,917.23,VALID,0,VALID,95.8981,VALID,-0.0339617,VALID,19.6781,VALID,144,VALID,0.936035,
2001-06-13, 02:25:00,VALID,917.223,VALID,0,VALID,95.9235,VALID,0.0169808,VALID,19.6714,VALID,144,VALID,0.9377,
2001-06-13, 02:26:00,VALID,917.211,VALID,0,VALID,95.9909,VALID,-0.0509425,VALID,19.6821,VALID,151,VALID,0.96875,
2001-06-13, 02:27:00,VALID,917.205,VALID,0,VALID,96.0939,VALID,-0.0509425,VALID,19.6724,VALID,153,VALID,0.869721,
2001-06-13, 02:28:00,VALID,917.204,VALID,0,VALID,96.2312,VALID,-0.0679233,VALID,19.6793,VALID,142,VALID,0.830193,
2001-06-13, 02:29:00,VALID,917.205,VALID,0,VALID,96.3024,VALID,0,VALID,19.6565,VALID,134,VALID,0.846917,
2001-06-13, 02:30:00,VALID,917.218,VALID,0,VALID,96.3864,VALID,-0.0339617,VALID,19.6366,VALID,113,VALID,0.559827,
2001-06-13, 02:31:00,VALID,917.235,VALID,0,VALID,96.4538,VALID,-0.0509425,VALID,19.62,VALID,95,VALID,0.730674,
2001-06-13, 02:32:00,VALID,917.247,VALID,0,VALID,96.5033,VALID,-0.0169808,VALID,19.6043,VALID,116,VALID,0.55692,
2001-06-13, 02:33:00,VALID,917.255,VALID,0,VALID,96.6178,VALID,-0.0679233,VALID,19.6013,VALID,145,VALID,0.488176,
2001-06-13, 02:34:00,VALID,917.258,VALID,0,VALID,96.7259,VALID,-0.0679233,VALID,19.5884,VALID,138,VALID,0.53079,
2001-06-13, 02:35:00,VALID,917.243,VALID,0,VALID,96.82,VALID,-0.0849042,VALID,19.5884,VALID,142,VALID,0.6894,
2001-06-13, 02:36:00,VALID,917.254,VALID,0,VALID,96.8912,VALID,-0.0679233,VALID,19.5752,VALID,141,VALID,0.776611,
2001-06-13, 02:37:00,VALID,917.242,VALID,0,VALID,96.8975,VALID,-0.0339617,VALID,19.572,VALID,136,VALID,0.832532,
2001-06-13, 02:38:00,VALID,917.225,VALID,0,VALID,96.9052,VALID,-0.0679233,VALID,19.5755,VALID,141,VALID,0.686607,
2001-06-13, 02:39:00,VALID,917.23,VALID,0,VALID,96.8721,VALID,-0.0169808,VALID,19.5857,VALID,135,VALID,0.709248,
2001-06-13, 02:40:00,VALID,917.219,VALID,0,VALID,96.8454,VALID,-0.0339617,VALID,19.5822,VALID,140,VALID,0.813879,
2001-06-13, 02:41:00,VALID,917.21,VALID,0,VALID,96.7348,VALID,0,VALID,19.577,VALID,137,VALID,0.826225,
2001-06-13, 02:42:00,VALID,917.203,VALID,0,VALID,96.6343,VALID,0.0169808,VALID,19.5936,VALID,135,VALID,0.752262,
2001-06-13, 02:43:00,VALID,917.195,VALID,0,VALID,96.5275,VALID,0.0169808,VALID,19.6066,VALID,133,VALID,0.6581,
2001-06-13, 02:44:00,VALID,917.184,VALID,0,VALID,96.4499,VALID,0.0169808,VALID,19.6264,VALID,134,VALID,0.651339,
2001-06-13, 02:45:00,VALID,917.174,VALID,0,VALID,96.2859,VALID,0.0339617,VALID,19.6322,VALID,145,VALID,1.06187,
2001-06-13, 02:46:00,VALID,917.168,VALID,0,VALID,96.1867,VALID,0,VALID,19.655,VALID,150,VALID,1.0455,
2001-06-13, 02:47:00,VALID,917.148,VALID,0,VALID,96.0227,VALID,0.0509425,VALID,19.6642,VALID,146,VALID,1.31503,
2001-06-13, 02:48:00,VALID,917.142,VALID,0,VALID,95.9171,VALID,0.0339617,VALID,19.6771,VALID,141,VALID,1.28613,
2001-06-13, 02:49:00,VALID,917.132,VALID,0,VALID,95.8815,VALID,0.0679233,VALID,19.6863,VALID,137,VALID,0.972356,
2001-06-13, 02:50:00,VALID,917.137,VALID,0,VALID,95.9616,VALID,0.0509425,VALID,19.693,VALID,143,VALID,0.940402,
2001-06-13, 02:51:00,VALID,917.12,VALID,0,VALID,96.1282,VALID,0.0849042,VALID,19.6804,VALID,145,VALID,0.905194,
2001-06-13, 02:52:00,VALID,917.124,VALID,0,VALID,96.2745,VALID,0.0509425,VALID,19.6808,VALID,129,VALID,0.672794,
2001-06-13, 02:53:00,VALID,917.113,VALID,0,VALID,96.4232,VALID,0.0509425,VALID,19.658,VALID,102,VALID,0.498733,
2001-06-13, 02:54:00,VALID,917.109,VALID,0,VALID,96.5148,VALID,0.0339617,VALID,19.6453,VALID,87,VALID,0.635896,
2001-06-13, 02:55:00,VALID,917.124,VALID,0,VALID,96.6114,VALID,0.0679233,VALID,19.6488,VALID,71,VALID,0.505345,
2001-06-13, 02:56:00,VALID,917.112,VALID,0,VALID,96.7386,VALID,-0.0339617,VALID,19.6366,VALID,73,VALID,0.612277,
2001-06-13, 02:57:00,VALID,917.108,VALID,0,VALID,96.7729,VALID,-0.0509425,VALID,19.6336,VALID,72,VALID,0.769003,
2001-06-13, 02:58:00,VALID,917.112,VALID,0,VALID,96.8378,VALID,-0.0169808,VALID,19.6364,VALID,61,VALID,0.862822,
2001-06-13, 02:59:00,VALID,917.105,VALID,0,VALID,96.7666,VALID,-0.0169808,VALID,19.6302,VALID,68,VALID,0.998944,
2001-06-13, 03:00:00,VALID,917.101,VALID,0,VALID,96.5135,VALID,-0.0169808,VALID,19.614,VALID,69,VALID,0.952148,
2001-06-13, 03:01:00,VALID,917.081,VALID,0,VALID,96.3876,VALID,-0.0849042,VALID,19.6078,VALID,84,VALID,0.789864,
2001-06-13, 03:02:00,VALID,917.09,VALID,0,VALID,96.2783,VALID,0,VALID,19.5946,VALID,91,VALID,0.822768,
2001-06-13, 03:03:00,VALID,917.08,VALID,0,VALID,96.0774,VALID,-0.0339617,VALID,19.5884,VALID,119,VALID,0.600296,
2001-06-13, 03:04:00,VALID,917.061,VALID,0,VALID,96.0214,VALID,-0.0509425,VALID,19.5847,VALID,127,VALID,0.519531,
2001-06-13, 03:05:00,VALID,917.051,VALID,0,VALID,95.9388,VALID,-0.0679233,VALID,19.6175,VALID,115,VALID,0.615498,
2001-06-13, 03:06:00,VALID,917.041,VALID,0,VALID,95.8675,VALID,-0.0679233,VALID,19.614,VALID,121,VALID,0.206826,
2001-06-13, 03:07:00,VALID,917.048,VALID,0,VALID,95.8459,VALID,-0.0339617,VALID,19.6466,VALID,88,VALID,0.386924,
2001-06-13, 03:08:00,VALID,917.052,VALID,0,VALID,95.7582,VALID,-0.0169808,VALID,19.6657,VALID,134,VALID,0.323438,
2001-06-13, 03:09:00,VALID,917.064,VALID,0,VALID,95.6323,VALID,-0.0169808,VALID,19.6717,VALID,132,VALID,0,
2001-06-13, 03:10:00,VALID,917.08,VALID,0,VALID,95.5395,VALID,-0.0169808,VALID,19.6918,VALID,125,VALID,0.0900735,
2001-06-13, 03:11:00,VALID,917.093,VALID,0,VALID,95.378,VALID,-0.0169808,VALID,19.6848,VALID,138,VALID,0.526816,
2001-06-13, 03:12:00,VALID,917.098,VALID,0,VALID,95.4009,VALID,0,VALID,19.7047,VALID,139,VALID,0.638184,
2001-06-13, 03:13:00,VALID,917.096,VALID,0,VALID,95.308,VALID,-0.0169808,VALID,19.7109,VALID,136,VALID,0.831731,
2001-06-13, 03:14:00,VALID,917.097,VALID,0,VALID,95.2572,VALID,-0.0169808,VALID,19.698,VALID,121,VALID,0.735491,
2001-06-13, 03:15:00,VALID,917.11,VALID,0,VALID,95.3551,VALID,-0.0339617,VALID,19.6853,VALID,92,VALID,0.293708,
2001-06-13, 03:16:00,VALID,917.112,VALID,0,VALID,95.397,VALID,-0.0339617,VALID,19.6885,VALID,122,VALID,0.479779,
2001-06-13, 03:17:00,VALID,917.116,VALID,0,VALID,95.3843,VALID,-0.0679233,VALID,19.6756,VALID,117,VALID,0.520059,
2001-06-13, 03:18:00,VALID,917.105,VALID,0,VALID,95.4301,VALID,0,VALID,19.663,VALID,116,VALID,0.474507,
2001-06-13, 03:19:00,VALID,917.095,VALID,0,VALID,95.5242,VALID,-0.0849042,VALID,19.653,VALID,135,VALID,0.576891,
2001-06-13, 03:20:00,VALID,917.088,VALID,0,VALID,95.6526,VALID,-0.0679233,VALID,19.6433,VALID,140,VALID,0.704018,
2001-06-13, 03:21:00,VALID,917.065,VALID,0,VALID,95.7048,VALID,-0.0849042,VALID,19.6403,VALID,143,VALID,0.73522,
2001-06-13, 03:22:00,VALID,917.06,VALID,0,VALID,95.7518,VALID,-0.0849042,VALID,19.6336,VALID,146,VALID,0.9267,
2001-06-13, 03:23:00,VALID,917.048,VALID,0,VALID,95.8154,VALID,-0.0849042,VALID,19.6438,VALID,154,VALID,1.05258,
2001-06-13, 03:24:00,VALID,917.043,VALID,0,VALID,95.7518,VALID,-0.0679233,VALID,19.6366,VALID,153,VALID,1.28027,
2001-06-13, 03:25:00,VALID,917.018,VALID,0,VALID,95.6386,VALID,-0.0339617,VALID,19.65,VALID,150,VALID,1.38381,
2001-06-13, 03:26:00,VALID,917.015,VALID,0,VALID,95.5585,VALID,0.0169808,VALID,19.652,VALID,153,VALID,1.08661,
2001-06-13, 03:27:00,VALID,917.003,VALID,0,VALID,95.4924,VALID,0,VALID,19.6577,VALID,147,VALID,1.28336,
2001-06-13, 03:28:00,VALID,917.005,VALID,0,VALID,95.4466,VALID,0.0339617,VALID,19.6674,VALID,143,VALID,1.37799,
2001-06-13, 03:29:00,VALID,917.012,VALID,0,VALID,95.3881,VALID,0.0509425,VALID,19.6704,VALID,146,VALID,1.48332,
2001-06-13, 03:30:00,VALID,917.014,VALID,0,VALID,95.3309,VALID,0.0679233,VALID,19.6709,VALID,145,VALID,1.00699,
2001-06-13, 03:31:00,VALID,917,VALID,0,VALID,95.3004,VALID,0.0679233,VALID,19.6841,VALID,137,VALID,0.839844,
2001-06-13, 03:32:00,VALID,917.007,VALID,0,VALID,95.3258,VALID,0.0339617,VALID,19.6806,VALID,118,VALID,0.656027,
2001-06-13, 03:33:00,VALID,917.006,VALID,0,VALID,95.2979,VALID,0.0679233,VALID,19.6972,VALID,120,VALID,0.640625,